SCP
0 0 0 0 0 0 0 0 0 0 0 0 0 0 0 0 0 0 0 0 0 0 0 0 0 0 0 0 0 0 0 0 0 0 0 0 0 0
0 0 0 0 0 0 0 0 0 0 0 0 0 0 0 0 0 0 0 0 0 0 0 0 0 0 0 0 0 0 0 0 0 0 0 0 0 0
0 0 0 0 0 0 0 0 0 0 0 0 0 0 0 0 0 0 0 0 0 0 0 0 0 0 0 0 0 0 0 0 0 0 0 0 0 0
0 0 0 0 0 0 0 0 0 0 0 0 0 0 0 0 0 0 0 0 0 0 0 0 0 0 0 0 0 0 0 0 0 0 0 0 0 0
0 0 0 0 0 0 0 0 0 0 0 0 0 0 0 0 0 0 0 0 0 0 0 0 0 0 0 0 0 0 0 0 0 0 0 0 0 0
0 0 0 0 0 0 0 0 0 0 0 0 0 0 0 0 0 0 0 0 0 0 0 0 0 0 0 0 0 0 0 0 0 0 0 0 0 0
0 0 0 0 0 0 0 0 0 0 0 0 0 0 0 0 0 0 0 0 0 0 0 0 0 0 0 0 0 0 0 0 0 0 0 0 0 0
0 0 0 0 0 0 0 0 0 0 0 0 0 0 0 0 0 0 0 0 0 0 0 0 0 0 0 0 0 0 0 0 0 0 0 0 0 0
0 0 0 0 0 0 0 0 0 0 0 0 0 0 0 0 0 0 0 0 0 0 0 0 0 0 0 0 0 0 0 0 0 0 0 0 0 0
0 0 0 0 0 0 0 0 0 0 0 0 0 0 0 0 0 0 0 0 0 0 0 0 0 0 0 0 0 0 0 0 0 0 0 0 0 0
0 0 0 0 0 0 0 0 0 0 0 0 0 0 0 0 0 0 0 0 0 0 0 0 0 0 0 0 0 0 0 0 0 0 0 0 0 0
0 0 0 0 0 0 0 0 0 0 0 0 0 0 0 0 0 0 0 0 0 0 0 0 0 0 0 0 0 0 0 0 0 0 0 0 0 0
0 0 0 0 0 0 0 0 0 0 0 0 0 0 0 0 0 0 0 0 0 0 0 0 0 0 0 0 0 0 0 0 0 0 0 0 0 0
0 0 0 0 0 0 0 0 0 0 0 0 0 0 0 0 0 0 0 0 0 0 0 0 0 0 0 0 0 0 0 0 0 0 0 0 0 0
0 0 0 0 0 0 0 0 0 0 0 0 0 0 0 0 0 0 0 0 0 0 0 0 0 0 0 0 0 0 0 0 0 0 0 0 0 0
0 0 0 0 0 0 0 0 0 0 0 0 0 0 0 0 0 0 0 0 0 0 0 0 0 0 0 0 0 0 0 0 0 0 0 0 0 0
0 0 0 0 0 0 0 0 0 0 0 0 0 0 0 0 0 0 0 0 0 0 0 0 0 0 0 0 0 0 0 0 0 0 0 0 0 0
0 0 0 0 0 -0 -0 -0 -0 -0 -0 -0 -0 -0 -0 -0 0 0 0 0 0 0 0 0 0 0 0 0 0 0 0 0 0 0 0 0 0 0
0 0 0 0 -0 -0 -0 -0 -0 -0 -0 -0 -0 -0 -0 -0 0 0 0 0 0 0 0 0 0 0 0 0 0 0 0 0 0 0 0 0 0 0
0 0 -0 -0 -0 -0 -0 -0 -0 0 0 0 0 0 0 0 0 0 0 0 0 0 0 0 0 0 0 0 0 0 0 0 0 0 0 0 0 0
-0 -0 -0 -0 -0 0 0 0 0 0 0 0 0 0 0 0 0 0 0 0 0 0 0 0 0 0 0 0 0 0 0 0 0 0 0 0 0 0
-0 -0 -0 0 0 0 0 0 0 0 0 0 0 0 0 0 0 0 0 0 0 0 0 0 0 0 0 0 0 0 0 0 0 0 0 0 0 0
-0 0 0 0 0 0 0 0 0 0 0 0 0 0 0 0 0 0 0 0 0 0 0 0 0 0 0 0 0 0 0 0 0 0 0 0 0 0
Wind_Speed
4 4 5 4 4 4 5 5 6 7 6 4 3 3 3 3 2 4 4 3 5 6 6 6 6 6 6 7 6 6 6 5 5 6 6 8 10 10
4 4 5 5 4 4 5 5 5 6 7 6 5 4 4 4 3 5 5 5 8 8 8 7 7 7 7 7 7 7 6 6 6 7 7 8 8 9
5 5 5 6 6 5 5 5 5 5 7 7 5 4 5 6 4 5 6 6 5 8 8 8 8 8 8 8 7 7 7 7 7 7 8 9 9 9
5 6 6 5 6 6 5 6 5 5 6 8 6 5 6 6 5 6 6 5 5 6 8 9 9 9 8 8 8 7 7 7 7 8 8 9 9 10
6 6 6 6 7 5 6 6 6 5 5 6 7 5 5 4 5 5 6 5 6 5 8 10 10 9 9 9 9 9 8 8 8 7 8 9 10 10
6 7 6 6 7 7 6 7 6 6 6 6 6 5 4 4 4 4 5 4 5 4 4 5 7 9 10 10 10 10 9 9 8 8 8 9 9 10
6 7 7 6 7 7 7 6 6 6 6 5 5 5 4 4 4 4 5 4 4 4 4 4 5 6 7 10 11 10 10 9 9 9 8 9 9 9
7 7 7 6 6 8 9 9 8 8 7 6 6 6 6 6 4 5 5 5 5 3 4 5 5 5 5 6 6 9 9 9 9 8 8 9 9 9
7 7 7 5 5 6 6 8 9 11 11 8 8 8 8 6 5 7 6 6 6 5 5 6 5 5 5 3 8 8 8 9 9 8 8 8 8 9
7 7 7 7 5 5 7 7 7 6 7 8 8 8 7 6 6 7 7 7 7 6 6 6 5 5 5 4 8 10 9 9 8 8 8 9 9 9
6 6 6 6 3 3 6 7 7 6 5 7 8 8 8 9 8 6 7 7 6 6 5 6 5 5 5 5 5 10 10 10 9 9 9 9 9 9
5 5 4 4 3 3 5 6 7 6 6 5 5 7 8 9 10 9 8 7 6 6 4 5 5 5 4 4 4 5 7 9 11 11 10 10 9 8
5 5 3 0 3 5 6 6 7 7 7 6 6 5 5 5 6 7 7 7 7 6 4 4 5 5 5 4 4 4 5 4 6 8 10 11 10 9
5 5 4 2 4 6 5 5 7 7 6 5 5 4 4 4 4 5 6 7 7 8 6 5 5 5 5 5 4 4 4 4 5 5 4 7 10 10
5 5 6 6 6 5 6 7 7 5 5 5 5 5 4 4 4 4 5 6 8 8 7 7 7 6 6 6 5 5 5 4 5 4 4 4 5 5
5 4 6 8 6 5 5 4 4 4 4 5 5 5 5 4 4 4 4 4 5 5 6 8 8 8 7 7 7 6 5 4 4 4 4 4 4 5
6 5 4 4 3 3 4 4 4 3 3 4 4 5 4 4 4 3 4 4 5 5 5 4 6 7 8 8 7 7 6 5 5 4 5 5 5 5
5 4 4 5 5 5 5 5 5 4 4 5 5 5 5 5 5 4 4 5 5 5 5 4 4 5 6 7 8 8 6 5 5 5 5 6 6 5
3 4 4 5 5 5 5 5 5 5 5 5 5 5 5 5 5 5 5 4 5 5 5 4 4 5 6 7 6 8 7 5 5 5 5 6 6 5
3 4 4 5 5 5 6 6 6 6 5 5 5 5 5 6 6 6 5 6 6 5 5 4 4 5 6 7 6 5 8 6 5 5 5 5 4 2
4 4 4 5 5 5 5 6 6 6 6 6 6 6 6 6 6 6 6 5 6 6 6 5 3 4 6 6 6 5 3 6 5 4 5 5 5 5
5 5 5 5 5 5 5 5 5 5 5 5 6 6 6 6 7 7 6 6 5 6 7 6 4 4 5 6 6 6 5 3 5 5 4 4 4 4
5 5 5 5 5 4 5 5 6 6 5 6 6 6 6 6 6 6 6 6 6 7 7 6 5 4 5 5 5 5 6 5 4 4 4 5 6 5
Wind_Direction
272 273 276 283 278 278 279 281 287 292 293 289 283 277 267 264 216 250 260 212 232 251 255 251 250 254 254 254 254 254 255 258 259 254 254 251 243 240
276 282 282 283 283 276 272 275 273 281 290 296 291 293 294 283 232 256 262 222 231 236 240 241 245 249 248 247 247 247 248 252 257 259 256 257 256 249
274 275 280 289 288 283 276 273 270 270 278 288 288 288 278 277 269 262 257 251 241 214 223 233 240 244 245 245 246 248 248 247 251 258 259 257 255 253
278 282 283 283 284 287 287 279 277 273 271 284 290 287 281 274 273 269 262 258 259 211 208 224 234 237 237 237 237 240 240 240 246 254 260 260 256 251
284 284 282 283 283 286 284 282 278 272 268 276 282 285 283 281 282 273 269 263 257 224 205 215 224 229 232 234 233 233 231 234 239 247 255 256 253 250
284 283 282 282 280 282 279 280 284 284 274 271 278 276 276 276 274 274 273 262 260 260 246 230 214 215 224 228 229 228 228 232 236 240 246 249 247 244
282 281 282 281 286 281 285 291 289 282 280 277 281 282 280 281 276 277 278 280 272 265 260 249 229 229 220 218 219 221 225 230 234 236 239 243 243 238
283 284 280 261 261 253 256 263 269 270 277 281 280 280 279 277 279 274 275 275 273 260 265 263 255 252 243 237 195 196 213 224 231 236 238 238 235 232
283 284 286 289 272 277 260 240 243 240 246 265 274 276 279 278 275 270 269 272 279 284 278 272 262 256 253 226 170 190 208 220 227 232 236 235 231 229
280 283 285 288 292 297 291 285 278 262 247 242 255 265 270 273 270 268 271 269 263 255 248 264 268 264 260 238 182 197 209 219 226 231 232 232 232 231
290 288 285 283 296 293 284 286 287 288 267 245 250 260 272 269 266 263 257 257 264 260 237 250 259 262 261 247 198 195 208 215 222 229 231 231 231 231
293 287 275 269 288 281 283 289 292 297 301 289 249 243 248 246 236 241 253 258 265 267 245 241 256 258 258 246 231 203 211 213 217 221 225 228 225 231
305 307 335 49 277 279 275 278 286 294 291 284 272 263 259 249 241 237 241 251 259 266 266 245 257 258 262 263 251 237 233 228 216 216 216 218 215 221
301 315 342 359 304 286 277 279 281 280 275 275 271 266 265 264 261 257 254 255 261 267 276 273 270 268 264 264 265 257 248 245 243 242 232 196 203 214
301 317 310 298 296 278 255 260 262 262 273 279 280 280 279 281 275 262 252 250 255 257 255 249 252 260 263 265 266 265 266 258 248 243 241 227 217 212
283 283 255 256 259 276 280 260 259 277 287 290 293 293 290 281 272 271 266 257 256 256 246 236 235 243 252 256 260 260 257 255 250 249 249 242 233 229
319 294 296 301 299 301 303 306 299 291 285 293 294 292 290 286 280 272 264 261 266 270 262 238 227 227 242 255 259 256 254 252 251 247 246 247 240 235
293 298 313 318 321 320 319 318 313 315 315 305 299 296 295 292 290 276 264 261 264 270 276 267 248 238 241 240 235 248 253 252 253 243 243 248 247 236
280 310 323 327 324 320 319 319 319 321 316 310 310 310 306 299 296 292 286 279 272 269 270 269 264 258 259 266 241 218 243 257 255 250 243 246 250 240
305 318 324 326 326 327 328 325 321 320 319 316 313 310 306 300 294 290 287 289 287 284 276 267 264 265 269 278 280 246 218 244 250 247 245 249 253 221
329 330 327 325 327 327 325 323 322 323 327 323 318 316 310 304 301 300 299 299 289 287 282 280 276 259 274 273 268 265 231 203 241 252 253 251 248 242
330 330 327 327 325 326 326 323 325 328 327 321 320 318 315 310 308 306 304 302 295 292 291 291 276 257 261 263 266 269 265 219 201 216 246 264 264 256
335 333 329 325 323 323 320 319 320 321 324 321 318 315 312 310 309 307 308 306 304 301 296 293 287 272 267 270 270 270 267 259 237 216 210 201 208 222